Weather History for Marysville, CA

Change the Weather History Date:

Friday, December 21, 2012

  Actual Average Record
Temperature  
Mean Temperature 46 °F -  
Max Temperature 48 °F 51 °F 68 °F (1999)
Min Temperature 43 °F 36 °F 20 °F (1990)
Degree Days  
Heating Degree Days 20    
Moisture  
Dew Point 39 °F    
Average Humidity 77    
Maximum Humidity 93    
Minimum Humidity 41    
Precipitation  
Precipitation 0.96 in - - ()
Sea Level Pressure  
Sea Level Pressure 29.94 in    
Wind  
Wind Speed 15 mph (SE)    
Max Wind Speed 22 mph    
Max Gust Speed 33 mph    
Visibility 7 miles    
Events Rain    
Averages and records for this station are not official NWS values.
T = Trace of Precipitation, MM = Missing Value Source: NWS Daily Summary

Daily Weather History Graph

Daily Weather History Graph

Search for Another Location

Airport:

Trip Planner

Search our weather history database for the weather conditions in past years. The results will help you decide how hot, cold, wet, or windy it might be!

Date:

Astronomy

Dec. 21, 2012 Rise Set
Actual Time 7:22 AM PST 4:47 PM PST
Civil Twilight 6:52 AM PST 5:17 PM PST
Nautical Twilight 6:18 AM PST 5:51 PM PST
Astronomical Twilight 5:45 AM PST 6:23 PM PST
Moon 12:35 PM PST (12/21) 1:16 AM PST (12/21)
Length of Visible Light 10h 25m
Length of Day
9h 25m
Waxing Gibbous, 66% of the Moon is Illuminated
Dec 21
Waxing Gibbous
Dec 28
Full
Jan 4
Last Quarter
Jan 11
New
Jan 18
First Quarter

Hourly Weather History & Observations

Time (PST) Temp. Windchill Dew Point Humidity Pressure Visibility Wind Dir Wind Speed Gust Speed Precip Events Conditions
12:53 AM 48.9 °F - 30.0 °F 48% 29.98 in 10.0 mi SSE 18.4 mph 24.2 mph N/A   Overcast
1:53 AM 48.9 °F - 28.0 °F 44% 29.98 in 10.0 mi SSE 15.0 mph - N/A   Overcast
2:53 AM 48.9 °F - 26.1 °F 41% 29.96 in 10.0 mi SSE 18.4 mph 25.3 mph N/A   Overcast
3:53 AM 46.9 °F - 30.9 °F 54% 29.95 in 10.0 mi SSE 10.4 mph - 0.00 in Rain Light Rain
4:53 AM 46.0 °F 41.0 °F 35.1 °F 66% 29.95 in 10.0 mi South 10.4 mph - 0.01 in Rain Light Rain
5:53 AM 45.0 °F 40.1 °F 37.9 °F 76% 29.96 in 7.0 mi SSE 9.2 mph - 0.03 in Rain Light Rain
6:53 AM 44.1 °F 37.4 °F 37.0 °F 76% 29.95 in 4.0 mi SE 13.8 mph - 0.07 in Rain Rain
7:53 AM 44.1 °F 37.4 °F 37.9 °F 79% 29.96 in 5.0 mi ESE 13.8 mph - 0.14 in Rain Rain
8:53 AM 43.0 °F 36.4 °F 36.0 °F 76% 29.96 in 4.0 mi SE 12.7 mph - 0.19 in Rain Rain
9:53 AM 44.1 °F 38.6 °F 37.0 °F 76% 29.98 in 3.0 mi SE 10.4 mph - 0.16 in Rain Rain
10:53 AM 44.1 °F 36.5 °F 37.0 °F 76% 29.96 in 10.0 mi SE 17.3 mph 25.3 mph 0.08 in Rain Light Rain
11:53 AM 45.0 °F 38.9 °F 37.9 °F 76% 29.98 in 2.0 mi ESE 12.7 mph - 0.03 in Rain Rain
12:06 PM 46.4 °F 39.5 °F 37.4 °F 71% 29.97 in 7.0 mi SE 17.3 mph 23.0 mph 0.00 in Rain Light Rain
12:41 PM 44.6 °F 36.9 °F 39.2 °F 81% 29.96 in 2.0 mi SE 18.4 mph 26.5 mph 0.02 in Rain Light Rain
12:48 PM 44.6 °F 37.4 °F 39.2 °F 81% 29.97 in 1.8 mi SE 16.1 mph 24.2 mph 0.03 in Rain Light Rain
12:53 PM 45.0 °F 38.5 °F 39.9 °F 82% 29.98 in 2.0 mi SE 13.8 mph 23.0 mph 0.03 in Rain Light Rain
1:07 PM 44.6 °F 38.1 °F 41.0 °F 87% 29.95 in 3.0 mi SE 13.8 mph - 0.00 in Rain Light Rain
1:39 PM 46.4 °F 40.1 °F 42.8 °F 87% 29.91 in 2.5 mi ESE 15.0 mph 21.9 mph 0.01 in Rain Light Rain
1:53 PM 46.0 °F 39.6 °F 43.0 °F 89% 29.92 in 7.0 mi ESE 15.0 mph - 0.01 in Rain Light Rain
2:18 PM 46.4 °F 38.5 °F 42.8 °F 87% 29.91 in 1.8 mi SE 21.9 mph 33.4 mph 0.00 in Rain Light Rain
2:36 PM 46.4 °F 39.0 °F 44.6 °F 93% 29.90 in 2.5 mi SE 19.6 mph 31.1 mph 0.01 in Rain Light Rain
2:44 PM 46.4 °F 39.5 °F 42.8 °F 87% 29.90 in 7.0 mi SE 17.3 mph 28.8 mph 0.01 in Rain Light Rain
2:53 PM 46.9 °F - 43.0 °F 86% 29.91 in 10.0 mi SE 18.4 mph 27.6 mph 0.01 in   Overcast
3:53 PM 48.9 °F - 43.0 °F 80% 29.91 in 10.0 mi SSE 11.5 mph 21.9 mph 0.00 in Rain Light Rain
4:53 PM 48.9 °F - 43.0 °F 80% 29.90 in 9.0 mi SSE 13.8 mph - 0.01 in Rain Light Rain
5:53 PM 48.9 °F - 43.0 °F 80% 29.90 in 10.0 mi SSE 9.2 mph - 0.01 in Rain Light Rain
6:53 PM 48.0 °F - 43.0 °F 83% 29.94 in 10.0 mi SW 9.2 mph 20.7 mph 0.07 in Rain Light Rain
7:53 PM 48.9 °F - 43.0 °F 80% 29.93 in 5.0 mi SSE 11.5 mph - 0.06 in Rain Light Rain
8:53 PM 48.9 °F - 44.1 °F 83% 29.93 in 10.0 mi SSE 18.4 mph 26.5 mph 0.02 in   Overcast
9:53 PM 48.9 °F - 44.1 °F 83% 29.92 in 10.0 mi SSE 15.0 mph - N/A   Overcast
10:53 PM 48.0 °F - 45.0 °F 89% 29.91 in 9.0 mi SSE 9.2 mph - 0.02 in Rain Light Rain
11:53 PM 48.0 °F - 45.0 °F 89% 29.88 in 7.0 mi SSE 9.2 mph - 0.01 in Rain Light Rain